Theta_e
297 297 297 297 297 297 297 297 297 297 297 297 297 296 296 295 294 295 296 297 297 298 301 303 303 303 304 305 306 307 307 308 308 310 310 310 311 312 313 315 315 315 319
297 297 297 297 297 297 297 297 297 297 297 296 296 296 296 295 295 295 295 296 297 297 298 298 300 302 304 304 305 305 306 308 308 308 310 310 310 312 312 313 314 315 315
297 297 297 297 297 297 297 297 297 297 297 297 296 296 296 294 294 294 294 294 295 297 297 296 297 300 302 302 304 305 306 307 307 308 308 309 310 310 311 312 313 314 314
296 296 296 296 296 296 296 296 297 297 297 297 297 296 296 294 295 294 294 294 293 293 293 294 294 296 297 300 303 303 304 305 306 307 308 309 309 310 310 311 312 313 314
296 296 296 296 296 296 295 296 296 296 296 296 296 296 295 295 295 294 294 294 294 294 294 294 295 296 296 299 301 301 302 303 304 306 307 307 309 310 310 311 311 311 313
296 296 296 296 295 295 295 295 296 296 296 296 296 296 296 295 295 294 294 294 294 294 295 295 296 296 296 297 297 298 302 303 304 304 307 308 309 309 310 311 312 311 312
297 296 296 296 295 295 295 295 295 295 296 296 297 298 296 295 295 294 294 294 294 294 295 295 296 295 296 296 296 298 299 301 304 305 307 308 309 310 311 309 310 312 312
296 296 296 296 295 295 294 294 295 295 295 295 295 295 296 296 295 295 294 294 294 294 295 295 295 295 295 295 295 297 299 301 304 305 306 307 308 310 312 312 312 310 313
296 296 296 296 295 295 295 294 294 295 295 295 295 294 294 294 294 294 294 294 294 294 294 295 295 295 295 295 295 297 299 301 302 303 306 308 309 310 310 311 311 312 312
296 296 296 296 295 295 295 294 294 294 295 295 295 295 295 294 294 294 294 294 294 294 294 294 294 295 295 295 295 295 299 299 301 303 304 307 308 310 309 310 311 313 315
296 296 296 296 295 295 295 295 294 294 294 295 295 295 295 294 294 293 293 294 294 294 293 293 293 293 294 295 295 295 297 298 300 302 304 304 307 307 308 309 310 313 315
296 296 296 296 295 295 295 295 294 294 294 294 295 295 295 295 294 294 293 293 293 293 293 293 293 292 293 295 295 295 295 296 299 301 302 304 305 306 307 309 309 309 311
296 296 296 296 295 295 295 295 294 294 294 294 295 295 295 295 295 294 293 293 293 293 294 293 293 293 292 293 294 293 294 294 296 300 301 303 304 305 306 307 308 309 310
296 296 296 296 295 295 295 295 295 294 293 293 294 295 295 296 296 295 294 293 293 294 294 294 293 293 292 292 292 292 293 293 295 298 300 302 303 303 304 305 305 309 309
297 296 296 296 296 295 295 295 295 294 293 293 294 294 294 294 295 294 293 293 293 294 295 294 294 293 292 292 291 291 292 293 295 297 299 301 302 302 302 303 304 308 309
297 296 296 296 296 295 295 295 294 294 294 293 294 294 293 293 295 293 293 293 294 294 295 294 293 293 292 292 292 291 291 292 294 295 297 299 300 300 301 302 302 303 305
297 297 296 296 296 295 295 295 294 294 293 293 294 293 293 292 295 293 292 293 294 294 295 294 293 293 292 291 291 291 290 292 293 294 295 297 299 299 300 301 301 302 304
297 297 296 296 296 296 295 295 294 294 293 293 293 293 293 293 295 293 292 294 294 294 294 294 293 293 291 290 290 290 290 291 292 292 294 296 297 298 298 300 301 301 303
297 297 297 296 296 296 295 295 294 294 293 293 293 293 293 294 295 294 292 294 295 294 294 293 293 292 291 291 290 291 291 291 291 291 292 294 295 297 297 298 299 300 301
298 297 297 297 296 296 295 295 294 294 294 293 293 293 293 293 295 294 293 293 294 294 293 293 293 292 291 291 291 290 291 291 292 291 291 293 294 294 295 295 297 299 300
299 297 297 297 296 296 296 295 294 294 294 293 293 293 294 293 295 295 294 292 295 294 293 293 292 292 291 291 291 291 291 290 291 291 291 292 293 292 292 293 293 295 298
299 299 297 297 297 296 296 295 294 294 293 293 294 294 294 293 294 295 293 291 294 291 290 292 292 292 292 292 291 290 290 291 291 292 291 291 291 291 291 291 293 293 295
299 299 299 297 297 297 296 296 295 294 293 294 294 294 294 293 294 294 293 292 291 291 290 291 291 292 292 292 291 291 290 290 290 290 291 292 291 291 291 291 291 292 292
299 299 299 299 297 297 296 296 296 294 294 294 294 294 294 293 294 294 293 293 291 291 290 290 290 292 292 293 292 291 290 290 291 290 290 290 292 291 290 291 291 291 292
300 299 299 299 298 297 296 296 296 295 294 294 294 294 294 294 293 294 293 293 292 291 290 290 291 292 292 292 291 291 290 290 291 291 291 290 290 291 290 290 290 291 290
300 300 299 299 299 298 297 296 296 296 295 295 294 295 295 294 293 293 293 293 292 291 291 289 290 291 291 290 290 290 290 290 290 291 290 291 290 290 290 290 290 291 291
Wind_Speed
10 11 12 13 14 16 17 19 21 21 20 19 19 20 18 16 15 15 15 14 14 14 12 13 14 16 18 19 21 21 23 23 23 22 22 20 21 23 23 22 24 26 37
9 11 12 13 14 15 17 18 20 21 21 20 19 20 18 16 17 18 18 17 17 16 15 18 17 17 18 20 21 22 22 22 21 21 21 22 21 22 24 25 26 26 27
10 11 12 13 13 15 16 17 18 19 19 20 20 21 18 15 19 17 17 19 20 19 19 20 20 18 18 20 22 21 20 19 20 21 21 22 23 24 25 27 27 27 29
9 10 11 12 13 14 14 15 15 14 16 18 17 19 14 10 19 19 20 19 19 21 22 20 19 19 19 19 20 19 20 21 21 21 23 23 24 24 27 28 30 31 31
9 10 11 12 12 13 14 15 14 16 18 19 20 16 8 8 16 14 16 17 19 18 19 21 21 20 19 18 19 20 20 21 21 23 25 25 25 26 28 30 31 33 33
10 10 10 11 12 13 14 15 15 15 19 20 20 19 9 12 10 14 17 17 18 17 16 18 19 20 19 20 21 22 21 19 20 21 24 26 28 31 32 32 33 35 35
10 9 10 11 12 13 14 15 16 16 17 19 20 20 16 14 9 10 19 22 21 17 15 15 16 17 19 20 21 21 20 18 19 23 25 27 30 34 35 34 37 37 38
10 10 10 10 11 12 13 13 15 17 17 17 18 17 14 15 23 10 19 24 25 20 15 11 13 17 19 21 21 19 16 17 23 24 26 30 32 29 29 31 32 37 40
11 11 10 11 12 12 12 12 13 15 17 14 14 12 6 8 30 21 20 24 27 24 17 13 15 18 17 19 21 18 16 22 18 25 28 29 32 27 23 25 33 39 45
13 12 11 12 11 12 12 11 13 14 15 16 14 13 12 13 10 18 27 26 28 27 25 22 17 17 18 19 20 19 16 22 18 22 25 32 32 29 26 30 39 40 35
14 13 13 13 12 13 12 12 12 13 14 14 14 14 16 16 16 19 30 34 31 29 22 25 23 23 21 20 20 21 19 19 18 20 22 30 33 30 26 27 35 29 28
15 15 14 13 13 13 13 12 13 13 14 14 13 13 14 17 20 20 26 30 30 34 28 28 26 25 22 19 20 22 23 22 20 21 22 26 32 30 27 27 35 37 36
16 14 15 14 13 14 14 13 13 13 14 15 14 14 14 15 18 20 23 25 28 31 30 29 29 26 26 24 25 27 28 26 22 22 21 23 29 30 29 27 35 45 39
16 16 16 15 14 15 15 15 14 14 15 16 15 16 16 16 17 19 21 21 27 23 29 31 33 30 30 29 28 30 29 25 21 20 20 21 29 30 34 31 35 33 60
17 17 17 16 15 15 16 16 15 14 16 16 16 17 18 17 17 18 18 18 19 25 29 32 35 33 32 33 30 30 26 21 19 19 19 17 25 30 32 33 35 25 59
19 19 18 17 17 16 16 17 17 15 17 16 17 19 19 19 17 17 18 17 15 22 25 32 33 32 31 33 28 28 23 19 17 17 18 17 21 27 29 32 34 36 40
20 20 19 19 19 17 17 18 18 17 17 17 17 19 20 19 18 16 18 14 15 18 25 29 30 32 35 29 24 25 20 17 16 17 17 17 19 24 26 28 31 35 35
22 21 21 20 20 19 18 19 19 18 18 18 17 19 19 17 17 16 18 13 15 18 20 26 30 34 31 26 25 22 17 16 15 17 18 16 16 20 24 24 26 31 32
23 23 23 22 20 19 19 20 20 19 19 18 18 19 19 17 17 16 16 14 14 17 17 21 27 25 26 26 28 23 16 15 11 16 16 15 16 16 21 24 23 24 27
25 24 24 23 22 20 20 20 20 20 19 19 18 18 18 17 17 16 16 15 13 17 17 19 23 21 24 26 25 26 27 16 12 14 14 12 13 14 16 20 21 20 19
27 25 25 25 23 22 21 20 20 21 21 20 19 17 17 17 16 15 16 15 14 17 18 16 18 17 21 25 27 25 25 22 12 18 13 15 15 17 21 24 24 18 18
28 27 27 26 25 24 21 20 21 21 21 21 19 17 16 16 15 14 15 12 12 17 16 16 16 15 17 19 22 27 24 24 24 22 15 16 18 20 23 24 23 20 16
29 29 28 27 26 24 22 21 20 22 22 21 20 19 17 16 15 14 14 13 12 13 14 15 17 13 14 16 20 22 24 18 16 22 19 18 18 18 21 21 22 20 19
30 29 28 27 26 25 22 22 21 21 22 21 20 19 18 15 14 13 14 13 12 13 13 12 13 12 12 14 16 17 20 22 12 18 19 20 16 16 18 19 21 20 18
30 30 29 27 27 24 22 22 21 22 22 21 19 18 17 16 13 13 15 14 13 12 12 11 10 10 11 11 15 13 14 17 16 15 17 18 21 11 14 18 20 20 17
29 29 29 28 26 26 23 23 22 22 22 20 18 17 16 15 12 12 14 14 14 11 10 10 10 8 8 9 10 10 11 12 14 9 16 14 15 17 7 13 16 17 18
Wind_Direction
360 2 4 7 6 4 6 8 10 11 10 5 359 355 350 346 335 329 327 324 321 321 338 334 328 319 316 313 311 312 310 305 301 298 296 293 284 284 281 272 275 271 250
357 2 3 5 2 359 1 3 5 5 4 2 357 351 348 346 340 343 334 325 317 316 313 315 323 322 319 316 313 311 311 311 306 303 298 295 289 282 277 274 267 267 267
352 358 358 359 356 358 358 1 2 359 356 355 353 345 352 354 353 345 334 330 324 318 315 317 317 321 318 317 315 313 312 310 308 304 299 297 293 285 278 276 273 270 267
343 352 352 350 352 353 354 356 354 354 354 354 354 343 344 359 360 353 352 344 330 321 318 318 319 321 321 324 325 312 307 306 306 305 301 296 292 290 285 281 273 269 263
333 337 338 342 349 350 355 356 355 352 353 356 3 2 359 341 359 2 354 355 349 334 324 321 324 327 322 328 328 323 311 302 301 301 305 299 291 291 288 283 278 272 265
317 316 323 333 344 346 357 357 356 355 348 350 358 7 3 352 3 1 1 0 352 343 332 326 325 324 326 323 322 326 329 311 306 306 306 304 298 291 285 284 279 273 266
290 312 319 324 335 343 352 352 352 352 348 351 354 2 357 355 345 2 11 7 359 351 335 329 332 329 323 325 325 325 327 319 321 315 311 308 302 293 287 281 278 271 263
292 299 304 317 324 340 347 344 344 348 352 352 356 360 351 351 340 1 6 2 1 354 341 332 334 331 328 331 328 327 335 338 323 319 317 315 311 302 293 286 281 272 265
283 288 299 305 316 326 336 335 335 336 345 353 354 357 341 321 338 332 345 354 357 351 348 328 329 333 328 330 329 323 335 337 316 323 326 323 329 309 301 298 296 280 263
275 286 293 295 303 311 324 328 326 323 327 338 340 344 334 322 318 322 328 343 350 354 355 353 333 334 329 326 331 328 335 317 323 327 331 334 330 326 306 300 313 298 275
273 279 283 290 299 303 313 320 319 317 317 322 325 329 331 330 324 312 317 333 340 349 357 347 337 327 321 323 323 329 326 326 317 323 331 334 336 335 321 298 330 326 291
271 275 279 287 292 300 305 312 314 314 311 314 319 317 321 325 324 316 314 323 331 339 353 353 346 339 323 318 322 321 323 324 316 313 331 334 341 340 327 309 339 339 312
270 273 276 284 288 294 300 304 310 310 308 308 310 313 307 314 316 314 312 318 324 332 343 348 349 345 338 325 318 320 317 319 322 321 334 337 347 348 346 337 322 326 327
267 266 273 279 284 289 294 299 304 307 304 305 301 307 310 314 307 312 311 315 320 323 331 341 344 344 341 332 323 316 316 321 319 322 332 346 352 348 357 3 349 318 349
265 265 269 275 278 283 290 294 300 304 303 304 298 301 307 314 307 311 310 312 311 315 320 334 337 341 340 337 331 324 323 325 322 320 332 342 348 356 1 3 4 336 20
262 264 267 273 275 280 287 291 297 300 301 304 299 300 305 310 308 313 312 310 307 314 309 328 335 336 334 330 324 327 331 329 323 329 328 341 347 360 1 2 16 12 15
258 262 266 269 274 278 284 288 294 297 299 301 300 301 306 306 307 313 314 310 314 317 318 324 331 336 336 339 332 329 334 336 332 334 336 343 3 8 7 10 13 24 20
258 261 264 267 272 277 281 286 291 294 296 300 300 300 306 303 305 312 314 307 317 323 320 324 329 331 339 347 343 338 339 345 342 345 342 343 3 13 11 10 21 25 28
258 259 262 267 271 275 279 284 288 291 294 298 298 301 307 305 307 309 313 303 318 320 318 320 323 334 344 353 352 350 346 342 340 353 352 353 6 17 26 20 26 28 29
257 258 261 265 268 271 276 282 286 289 292 296 296 298 304 304 305 307 311 312 318 314 315 315 322 334 346 351 357 359 0 357 341 359 14 2 9 13 33 33 30 36 31
256 259 260 262 266 269 275 280 283 286 289 293 295 295 298 302 298 301 302 309 313 308 308 309 322 329 341 350 359 354 357 5 10 6 9 19 12 20 29 36 34 43 40
254 257 259 262 265 268 274 277 281 283 286 289 294 294 297 299 292 288 298 296 293 309 308 296 311 322 331 340 357 358 354 3 7 10 5 360 359 11 24 35 41 42 39
253 255 258 260 264 267 270 274 277 280 284 289 292 294 296 297 287 286 295 297 301 308 303 300 305 319 323 335 347 356 3 356 360 360 8 13 7 20 27 30 33 43 45
251 253 256 258 262 264 266 270 274 276 279 284 289 290 291 294 285 281 286 291 298 302 304 301 300 314 321 325 327 344 355 2 6 16 14 24 25 26 23 29 28 35 44
251 251 254 256 258 261 263 266 268 272 275 281 285 284 286 288 282 274 275 283 289 292 303 309 310 312 312 312 316 337 345 356 6 20 21 18 20 35 33 26 25 26 35
256 256 254 253 255 257 257 260 263 267 271 278 279 279 281 286 281 265 262 273 278 283 300 307 305 307 312 315 318 333 340 347 355 359 6 6 13 17 20 17 19 28 31